This is the latest recevied weather packets stored in our database for station/object N4DWK. If no packets are shown the sender has not sent any weather packets the latest 10 day(s).
| Time | Temp. | Humidity | Pressure | Rain* | Wind** | Luminosity | Snow |
|---|---|---|---|---|---|---|---|
| 1788396306 | 27.78° C | 86% | 1016.7 hPa | 0 mm | - | 0 W/m² | - |
| 1788396006 | 27.78° C | 86% | 1016.7 hPa | 0 mm | - | 0 W/m² | - |
| 1788395705 | 27.78° C | 86% | 1016.7 hPa | 0 mm | - | 0 W/m² | - |
| 1788395407 | 27.78° C | 86% | 1016.6 hPa | 0 mm | - | 0 W/m² | - |
| 1788395106 | 28.33° C | 85% | 1016.4 hPa | 0 mm | - | 0 W/m² | - |
| 1788394806 | 28.33° C | 85% | 1016.5 hPa | 0 mm | - | 0 W/m² | - |
| 1788394507 | 28.33° C | 85% | 1016.7 hPa | 0 mm | - | 0 W/m² | - |
| 1788394207 | 28.33° C | 85% | 1016.6 hPa | 0 mm | - | 0 W/m² | - |
| 1788393906 | 28.33° C | 85% | 1016.5 hPa | 0 mm | - | 0 W/m² | - |
| 1788393606 | 28.33° C | 84% | 1016.5 hPa | 0 mm | - | 0 W/m² | - |
| 1788393306 | 28.33° C | 84% | 1016.3 hPa | 0 mm | - | 0 W/m² | - |
| 1788393007 | 28.33° C | 84% | 1016.3 hPa | 0 mm | - | 0 W/m² | - |
| 1788392706 | 28.33° C | 84% | 1016.4 hPa | 0 mm | - | 0 W/m² | - |
| 1788392406 | 28.33° C | 84% | 1016.4 hPa | 0 mm | - | 0 W/m² | - |
| 1788392106 | 28.33° C | 83% | 1016.3 hPa | 0 mm | - | 9 W/m² | - |
| 1788391806 | 28.33° C | 83% | 1016.3 hPa | 0 mm | - | 7 W/m² | - |
| 1788391506 | 28.89° C | 83% | 1016.4 hPa | 0 mm | - | 11 W/m² | - |
| 1788391206 | 28.89° C | 83% | 1016.6 hPa | 0 mm | - | 16 W/m² | - |
| 1788390906 | 28.89° C | 83% | 1016.9 hPa | 0 mm | - | 16 W/m² | - |
| 1788390606 | 28.89° C | 83% | 1017 hPa | 0 mm | - | 19 W/m² | - |
| 1788390307 | 28.89° C | 83% | 1017 hPa | 0 mm | - | 19 W/m² | - |
| 1788390006 | 28.89° C | 83% | 1016.8 hPa | 0 mm | - | 19 W/m² | - |
| 1788389706 | 28.89° C | 83% | 1016.7 hPa | 0 mm | - | 18 W/m² | - |
| 1788389406 | 28.89° C | 83% | 1016.4 hPa | 0 mm | - | 7 W/m² | - |
| 1788389106 | 29.44° C | 83% | 1016.5 hPa | 0 mm | - | 5 W/m² | - |
* Rain latest hour (hover to see other rain measurements)
** Current wind speed in m/s (hover to see current wind gust speed)